Durango, CO

3:55 PM MST on December 13, 2017 (GMT -0700)
Durango-La Plata County

Weather History for KDRO - August, 2015

Change the Weather History Date:

Monday, August 24, 2015

  Actual Average Record
Temperature  
Mean Temperature 67 °F 66 °F  
Max Temperature 87 °F 82 °F 92 °F (1985)
Min Temperature 46 °F 50 °F 39 °F (2002)
Degree Days  
Heating Degree Days 0 1  
Month to date heating degree days 3 7  
Since 1 June heating degree days 99 132  
Since 1 July heating degree days 18 17  
Cooling Degree Days 2 2  
Month to date cooling degree days 84 78  
Year to date cooling degree days 238 229  
Since 1 June cooling degree days 238 228  
Growing Degree Days 16 (Base 50)    
Moisture  
Dew Point 41 °F    
Average Humidity 47    
Maximum Humidity 77    
Minimum Humidity 16    
Precipitation  
Precipitation 0.00 in 0.05 in 0.83 in (1988)
Month to date precipitation 0.68 1.62  
Year to date precipitation 11.54 9.41  
Sea Level Pressure  
Sea Level Pressure 30.10 in    
Wind  
Wind Speed 5 mph (North)    
Max Wind Speed 15 mph    
Max Gust Speed 20 mph    
Visibility 10 miles    
Events      
T = Trace of Precipitation, MM = Missing Value Source: NWS Daily Summary

Daily Weather History Graph

Daily Weather History Graph

Search for Another Location

Airport or City:

Trip Planner

Search our weather history database for the weather conditions in past years. The results will help you decide how hot, cold, wet, or windy it might be!

Date:

Astronomy

Aug. 24, 2015 Rise Set
Actual Time 6:34 AM MDT 7:51 PM MDT
Civil Twilight 6:07 AM MDT 8:18 PM MDT
Nautical Twilight 5:35 AM MDT 8:50 PM MDT
Astronomical Twilight 5:01 AM MDT 9:24 PM MDT
Moon 3:42 PM MDT (8/24) 1:15 AM MDT (8/24)
Length of Visible Light 14h 10m
Length of Day
13h 16m
Waxing Gibbous, 70% of the Moon is Illuminated
Aug 24
Waxing Gibbous
Aug 29
Full
Sep 5
Last Quarter
Sep 13
New
Sep 21
First Quarter

Hourly Weather History & Observations

Time (MDT) Temp. Dew Point Humidity Pressure Visibility Wind Dir Wind Speed Gust Speed Precip Events Conditions
12:53 AM 57.0 °F 44.1 °F 62% 30.13 in 10.0 mi North 5.8 mph - N/A   Clear
1:53 AM 55.0 °F 42.1 °F 62% 30.13 in 10.0 mi Calm Calm - N/A   Clear
2:53 AM 55.0 °F 42.1 °F 62% 30.11 in 10.0 mi North 11.5 mph - N/A   Clear
3:53 AM 52.0 °F 42.1 °F 69% 30.14 in 10.0 mi Calm Calm - N/A   Clear
4:53 AM 51.1 °F 41.0 °F 68% 30.15 in 10.0 mi East 3.5 mph - N/A   Clear
5:53 AM 46.9 °F 39.9 °F 77% 30.18 in 10.0 mi ENE 4.6 mph - N/A   Clear
6:53 AM 48.0 °F 41.0 °F 77% 30.19 in 10.0 mi Calm Calm - N/A   Clear
7:53 AM 54.0 °F 42.1 °F 64% 30.20 in 10.0 mi Calm Calm - N/A   Clear
8:53 AM 62.1 °F 43.0 °F 50% 30.18 in 10.0 mi Calm Calm - N/A   Clear
9:53 AM 69.1 °F 43.0 °F 39% 30.15 in 10.0 mi Calm Calm - N/A   Clear
10:53 AM 75.0 °F 44.1 °F 33% 30.15 in 10.0 mi Calm Calm - N/A   Clear
11:53 AM 75.9 °F 43.0 °F 31% 30.14 in 10.0 mi ESE 3.5 mph - N/A   Clear
12:53 PM 80.1 °F 42.1 °F 26% 30.10 in 10.0 mi SSW 6.9 mph - N/A   Clear
1:53 PM 82.9 °F 41.0 °F 23% 30.07 in 10.0 mi Variable 3.5 mph - N/A   Clear
2:53 PM 84.9 °F 36.0 °F 17% 30.04 in 10.0 mi Variable 4.6 mph - N/A   Clear
3:53 PM 86.0 °F 36.0 °F 17% 30.03 in 10.0 mi NNW 10.4 mph 20.7 mph N/A   Clear
4:53 PM 86.0 °F 35.1 °F 16% 30.01 in 10.0 mi West 8.1 mph - N/A   Clear
5:53 PM 84.9 °F 34.0 °F 16% 30.02 in 10.0 mi NNW 4.6 mph - N/A   Clear
6:53 PM 82.0 °F 39.0 °F 22% 30.02 in 10.0 mi NW 11.5 mph - N/A   Clear
7:53 PM 78.1 °F 39.9 °F 25% 30.02 in 10.0 mi NW 8.1 mph - N/A   Clear
8:53 PM 73.9 °F 41.0 °F 30% 30.02 in 10.0 mi North 8.1 mph - N/A   Clear
9:53 PM 70.0 °F 42.1 °F 36% 30.04 in 10.0 mi NNE 3.5 mph - N/A   Clear
10:53 PM 64.9 °F 44.1 °F 47% 30.04 in 10.0 mi North 4.6 mph - N/A   Clear
11:53 PM 59.0 °F 41.0 °F 51% 30.08 in 10.0 mi ENE 6.9 mph - N/A   Clear